• In Czech Republic
  • List of Countries
  • For 7 days
  • Water Temperature
  • Satellite Maps
  • Weather Map
  • Weather Widgets
  • user-avatar
    Login

    Hourly Weather Minneapolis

    Today, 22 April, Sunday

    Time Temperature Precipitation Wind Pressure Humidity
    00:00 +5°C° 0 mm 1 mps 746 mmHg 80%
    01:00 +5°C° 0 mm 1 mps 746 mmHg 81%
    02:00 +5°C° 0 mm 1 mps 746 mmHg 82%
    03:00 +4°C° 0 mm 1 mps 746 mmHg 84%
    04:00 +4°C° 0 mm 1 mps 746 mmHg 84%
    05:00 +4°C° 0 mm 1 mps 746 mmHg 85%
    06:00 +4°C° 0 mm 1 mps 746 mmHg 85%
    07:00 +6°C° 0 mm 1 mps 747 mmHg 79%
    08:00 +8°C° 0 mm 1 mps 747 mmHg 72%
    09:00 +10°C° 0 mm 1 mps 747 mmHg 65%
    10:00 +12°C° 0 mm 2 mps 747 mmHg 60%
    11:00 +14°C° 0 mm 2 mps 746 mmHg 54%
    12:00 +15°C° 0 mm 2 mps 746 mmHg 48%
    13:00 +16°C° 0 mm 2 mps 746 mmHg 47%
    14:00 +17°C° 0 mm 3 mps 745 mmHg 46%
    15:00 +17°C° 0 mm 3 mps 745 mmHg 45%
    16:00 +16°C° 0 mm 2 mps 744 mmHg 49%
    17:00 +16°C° 0 mm 2 mps 744 mmHg 54%
    18:00 +15°C° 0 mm 2 mps 744 mmHg 59%
    19:00 +13°C° 0 mm 2 mps 744 mmHg 65%
    20:00 +12°C° 0 mm 2 mps 744 mmHg 71%
    21:00 +9°C° 0 mm 2 mps 744 mmHg 77%
    22:00 +8°C° 0 mm 2 mps 744 mmHg 79%
    23:00 +8°C° 0 mm 2 mps 744 mmHg 81%

    Tomorrow, 23 April, Monday

    Time Temperature Precipitation Wind Pressure Humidity
    00:00 +7°C° 0 mm 2 mps 744 mmHg 83%
    01:00 +6°C° 0 mm 2 mps 744 mmHg 84%
    02:00 +6°C° 0 mm 2 mps 744 mmHg 85%
    03:00 +5°C° 0 mm 2 mps 744 mmHg 86%
    04:00 +5°C° 0 mm 2 mps 744 mmHg 86%
    05:00 +5°C° 0 mm 2 mps 744 mmHg 87%
    06:00 +6°C° 0 mm 1 mps 744 mmHg 87%
    07:00 +8°C° 0 mm 1 mps 744 mmHg 79%
    08:00 +10°C° 0 mm 1 mps 744 mmHg 71%
    09:00 +13°C° 0 mm 1 mps 744 mmHg 63%
    10:00 +14°C° 0 mm 1 mps 743 mmHg 57%
    11:00 +16°C° 0 mm 1 mps 743 mmHg 51%
    12:00 +19°C° 0 mm 1 mps 743 mmHg 45%
    13:00 +20°C° 0 mm 1 mps 742 mmHg 42%
    14:00 +20°C° 0 mm 1 mps 742 mmHg 40%
    15:00 +21°C° 0 mm 1 mps 741 mmHg 38%
    16:00 +20°C° 0 mm 1 mps 741 mmHg 41%
    17:00 +18°C° 0 mm 0 mps 741 mmHg 43%
    18:00 +17°C° 0 mm 0 mps 740 mmHg 46%
    19:00 +16°C° 0 mm 0 mps 740 mmHg 50%
    20:00 +14°C° 0 mm 0 mps 740 mmHg 53%
    21:00 +13°C° 0 mm 1 mps 740 mmHg 56%
    22:00 +13°C° 0 mm 1 mps 740 mmHg 59%
    23:00 +12°C° 0 mm 1 mps 741 mmHg 61%

    Day after tomorrow, 24 April, Tuesday

    Time Temperature Precipitation Wind Pressure Humidity
    00:00 +11°C° 0 mm 1 mps 741 mmHg 64%
    01:00 +11°C° 0 mm 1 mps 741 mmHg 66%
    02:00 +11°C° 0 mm 1 mps 740 mmHg 68%
    03:00 +10°C° 0 mm 1 mps 740 mmHg 69%
    04:00 +9°C° 0 mm 2 mps 741 mmHg 71%
    05:00 +8°C° 0 mm 2 mps 741 mmHg 73%
    06:00 +8°C° 0 mm 3 mps 741 mmHg 74%
    07:00 +8°C° 0 mm 4 mps 742 mmHg 70%
    08:00 +9°C° 0 mm 5 mps 742 mmHg 66%
    09:00 +10°C° 0 mm 6 mps 743 mmHg 63%
    10:00 +10°C° 0.2 mm 6 mps 743 mmHg 61%
    11:00 +10°C° 0.2 mm 6 mps 743 mmHg 60%
    12:00 +10°C° 0.2 mm 6 mps 743 mmHg 58%
    13:00 +10°C° 0.2 mm 5 mps 743 mmHg 57%
    14:00 +10°C° 0.2 mm 5 mps 743 mmHg 56%
    15:00 +10°C° 0.2 mm 5 mps 742 mmHg 55%
    16:00 +11°C° 0 mm 4 mps 743 mmHg 53%
    17:00 +11°C° 0 mm 4 mps 743 mmHg 52%
    18:00 +11°C° 0 mm 3 mps 743 mmHg 51%
    19:00 +10°C° 0 mm 3 mps 743 mmHg 54%
    20:00 +9°C° 0 mm 3 mps 744 mmHg 57%
    21:00 +7°C° 0 mm 3 mps 744 mmHg 60%
    22:00 +7°C° 0 mm 3 mps 744 mmHg 58%
    23:00 +5°C° 0 mm 3 mps 744 mmHg 57%

    25 April, Wednesday

    Time Temperature Precipitation Wind Pressure Humidity
    00:00 +4°C° 0 mm 3 mps 744 mmHg 56%
    01:00 +3°C° 0 mm 3 mps 744 mmHg 59%
    02:00 +3°C° 0 mm 3 mps 744 mmHg 61%
    03:00 +3°C° 0 mm 2 mps 744 mmHg 63%
    04:00 +3°C° 0 mm 2 mps 745 mmHg 65%
    05:00 +3°C° 0 mm 1 mps 745 mmHg 68%
    06:00 +3°C° 0 mm 1 mps 745 mmHg 70%
    07:00 +5°C° 0 mm 1 mps 745 mmHg 63%
    08:00 +7°C° 0 mm 1 mps 745 mmHg 55%
    09:00 +9°C° 0 mm 1 mps 744 mmHg 48%
    10:00 +11°C° 0 mm 1 mps 744 mmHg 44%
    11:00 +12°C° 0 mm 2 mps 743 mmHg 39%
    12:00 +13°C° 0 mm 2 mps 743 mmHg 35%
    13:00 +13°C° 0 mm 3 mps 742 mmHg 34%
    14:00 +14°C° 0 mm 3 mps 741 mmHg 32%
    15:00 +16°C° 0 mm 3 mps 740 mmHg 31%
    16:00 +14°C° 0 mm 3 mps 739 mmHg 34%
    17:00 +14°C° 0 mm 3 mps 738 mmHg 37%
    18:00 +13°C° 0 mm 3 mps 737 mmHg 40%
    19:00 +12°C° 0 mm 3 mps 737 mmHg 43%
    20:00 +10°C° 0 mm 3 mps 736 mmHg 46%
    21:00 +9°C° 0 mm 3 mps 736 mmHg 48%
    22:00 +8°C° 0 mm 4 mps 735 mmHg 50%
    23:00 +8°C° 0 mm 4 mps 734 mmHg 52%

    26 April, Thursday

    Time Temperature Precipitation Wind Pressure Humidity
    00:00 +7°C° 0 mm 5 mps 732 mmHg 53%
    01:00 +8°C° 0 mm 5 mps 731 mmHg 54%
    02:00 +8°C° 0 mm 5 mps 730 mmHg 55%
    03:00 +8°C° 0 mm 6 mps 729 mmHg 55%
    04:00 +8°C° 0.3 mm 6 mps 728 mmHg 63%
    05:00 +8°C° 0.3 mm 6 mps 728 mmHg 70%
    06:00 +8°C° 0.3 mm 6 mps 728 mmHg 78%
    07:00 +8°C° 0.2 mm 7 mps 728 mmHg 75%
    08:00 +6°C° 0.2 mm 8 mps 728 mmHg 73%
    09:00 +6°C° 0.2 mm 9 mps 729 mmHg 71%
    10:00 +7°C° 0.3 mm 9 mps 729 mmHg 64%
    11:00 +9°C° 0.3 mm 10 mps 730 mmHg 58%
    12:00 +11°C° 0.3 mm 10 mps 730 mmHg 52%
    13:00 +11°C° 0 mm 10 mps 731 mmHg 48%
    14:00 +12°C° 0 mm 10 mps 731 mmHg 44%
    15:00 +12°C° 0 mm 10 mps 732 mmHg 40%
    16:00 +12°C° 0 mm 9 mps 732 mmHg 41%
    17:00 +11°C° 0 mm 8 mps 732 mmHg 42%
    18:00 +10°C° 0 mm 8 mps 733 mmHg 44%
    19:00 +9°C° 0 mm 7 mps 733 mmHg 43%
    20:00 +6°C° 0 mm 7 mps 734 mmHg 42%
    21:00 +5°C° 0 mm 7 mps 735 mmHg 42%
    22:00 +4°C° 0 mm 6 mps 735 mmHg 43%
    23:00 +3°C° 0 mm 6 mps 735 mmHg 45%

    27 April, Friday

    Time Temperature Precipitation Wind Pressure Humidity
    00:00 +1°C° 0 mm 5 mps 735 mmHg 47%
    01:00 +1°C° 0 mm 5 mps 736 mmHg 47%
    02:00 -1°C° 0 mm 6 mps 736 mmHg 47%
    03:00 -1°C° 0 mm 6 mps 736 mmHg 47%
    04:00 -2°C° 0 mm 6 mps 736 mmHg 47%
    05:00 -2°C° 0 mm 6 mps 737 mmHg 47%
    06:00 -3°C° 0 mm 6 mps 737 mmHg 47%
    07:00 -1°C° 0 mm 7 mps 737 mmHg 44%
    08:00 0°C° 0 mm 7 mps 738 mmHg 40%
    09:00 +2°C° 0 mm 7 mps 738 mmHg 36%
    10:00 +4°C° 0 mm 7 mps 738 mmHg 33%
    11:00 +6°C° 0 mm 7 mps 738 mmHg 30%
    12:00 +9°C° 0 mm 7 mps 738 mmHg 28%
    13:00 +10°C° 0 mm 7 mps 738 mmHg 26%
    14:00 +11°C° 0 mm 6 mps 738 mmHg 25%
    15:00 +13°C° 0 mm 6 mps 738 mmHg 23%
    16:00 +12°C° 0 mm 5 mps 738 mmHg 26%
    17:00 +12°C° 0 mm 4 mps 738 mmHg 29%
    18:00 +11°C° 0 mm 3 mps 738 mmHg 32%
    19:00 +10°C° 0 mm 3 mps 738 mmHg 34%
    20:00 +8°C° 0 mm 2 mps 739 mmHg 36%
    21:00 +6°C° 0 mm 2 mps 739 mmHg 38%
    22:00 +6°C° 0 mm 2 mps 739 mmHg 39%
    23:00 +5°C° 0 mm 2 mps 739 mmHg 41%
    Show more